Back to catalog

HULIANWANG DIGUI-87

AliveCommunicationsLEO
NORAD 65995·PAYLOAD·🇨🇳 China

Launched Oct 16, 2025 from Wenchang Space Launch Site

Loading…

Next Passes (next 24 hours)

TLE

FreshSource: Space-Track

Epoch: Sep 13, 2026, 22:50 UTC

1 65995U 25231A   26256.95195726 -.00000100  00000-0  52275-4 0  9999
2 65995  49.9986 217.4558 0000295  14.7420 345.3461 13.29327947 44693

Track HULIANWANG DIGUI-87 in real time with AllMySat

Download on the App Store